| time (UTC) | temp F | wind direction | speed knots | gust knots | rain 1hr in | rain 24hr in | rain mn in | humidity % | barometer mb |
| 20260508132516 | 59 | 0 | 0.9 | 4.3 | 0.00 | 0.05 | 0.00 | 65 | 1017.4 |
| 20260508131516 | 60 | 68 | 0.9 | 3.5 | 0.00 | 0.05 | 0.00 | 66 | 1017.4 |
| 20260508130516 | 61 | 45 | 0.9 | 3.5 | 0.00 | 0.05 | 0.00 | 69 | 1017.6 |
| 20260508125516 | 60 | 338 | 0.9 | 2.6 | 0.00 | 0.05 | 0.00 | 73 | 1017.8 |
| 20260508124516 | 60 | 0.0 | 2.6 | 0.00 | 0.05 | 0.00 | 69 | 1017.9 | |
| 20260508123516 | 57 | 0.0 | 1.7 | 0.00 | 0.05 | 0.00 | 69 | 1017.7 | |
| 20260508122515 | 57 | 0.0 | 2.6 | 0.00 | 0.05 | 0.00 | 71 | 1017.7 | |
| 20260508121516 | 56 | 0.0 | 0.9 | 0.00 | 0.05 | 0.00 | 71 | 1017.8 | |
| 20260508120516 | 56 | 0.0 | 0.9 | 0.00 | 0.05 | 0.00 | 72 | 1017.6 | |
| 20260508115515 | 55 | 45 | 0.9 | 2.6 | 0.00 | 0.05 | 0.00 | 69 | 1017.7 |
| 20260508114515 | 56 | 0.0 | 1.7 | 0.00 | 0.05 | 0.00 | 72 | 1017.6 | |
| 20260508113515 | 56 | 23 | 0.9 | 3.5 | 0.00 | 0.05 | 0.00 | 73 | 1017.7 |
| 20260508112517 | 57 | 0 | 0.9 | 1.7 | 0.00 | 0.05 | 0.00 | 74 | 1017.7 |
| 20260508111516 | 56 | 0.0 | 0.9 | 0.00 | 0.05 | 0.00 | 77 | 1017.6 | |
| 20260508110517 | 55 | 0.0 | 0.9 | 0.00 | 0.05 | 0.00 | 78 | 1017.6 | |
| 20260508105517 | 55 | 0.0 | 2.6 | 0.00 | 0.05 | 0.00 | 77 | 1017.6 | |
| 20260508104518 | 55 | 0.0 | 0.9 | 0.00 | 0.05 | 0.00 | 77 | 1017.6 | |
| 20260508103517 | 55 | 0.0 | 2.6 | 0.00 | 0.05 | 0.00 | 78 | 1017.5 | |
| 20260508102517 | 56 | 23 | 0.9 | 2.6 | 0.00 | 0.05 | 0.00 | 78 | 1017.6 |
| 20260508101518 | 56 | 23 | 0.9 | 2.6 | 0.00 | 0.05 | 0.00 | 76 | 1017.7 |
| 20260508100518 | 57 | 23 | 0.9 | 3.5 | 0.00 | 0.05 | 0.00 | 76 | 1017.7 |
| 20260508095517 | 57 | 0.0 | 2.6 | 0.00 | 0.05 | 0.00 | 81 | 1017.7 | |
| 20260508094517 | 54 | 45 | 0.9 | 3.5 | 0.00 | 0.05 | 0.00 | 79 | 1017.6 |
| 20260508093517 | 55 | 0.0 | 1.7 | 0.00 | 0.05 | 0.00 | 78 | 1017.9 | |
| 20260508092617 | 55 | 45 | 0.9 | 3.5 | 0.00 | 0.05 | 0.00 | 80 | 1018.0 |
| 20260508091517 | 55 | 0 | 0.9 | 3.5 | 0.00 | 0.05 | 0.00 | 83 | 1018.0 |
| 20260508090517 | 54 | 0.0 | 0.9 | 0.00 | 0.05 | 0.00 | 87 | 1018.0 | |
| 20260508085517 | 53 | 0.0 | 2.6 | 0.00 | 0.05 | 0.00 | 88 | 1017.9 | |
| 20260508084517 | 52 | 0.0 | 2.6 | 0.00 | 0.06 | 0.00 | 89 | 1018.0 | |
| 20260508083517 | 50 | 0.0 | 0.0 | 0.00 | 0.06 | 0.00 | 89 | 1018.0 | |
| 20260508082517 | 50 | 0.0 | 1.7 | 0.00 | 0.06 | 0.00 | 90 | 1018.1 | |
| 20260508081537 | 50 | 0.0 | 0.9 | 0.00 | 0.06 | 0.00 | 90 | 1018.0 | |
| 20260508080517 | 49 | 90 | 0.9 | 2.6 | 0.00 | 0.06 | 0.00 | 91 | 1018.0 |
| 20260508075537 | 49 | 0.0 | 0.0 | 0.00 | 0.06 | 0.00 | 91 | 1017.9 | |
| 20260508074537 | 49 | 90 | 0.9 | 2.6 | 0.00 | 0.06 | 0.00 | 92 | 1017.8 |
| 20260508073517 | 49 | 45 | 0.9 | 3.5 | 0.00 | 0.06 | 0.00 | 92 | 1017.8 |
| 20260508072517 | 49 | 0.0 | 1.7 | 0.00 | 0.06 | 0.00 | 93 | 1017.6 | |
| 20260508071517 | 48 | 0.0 | 0.9 | 0.00 | 0.06 | 0.00 | 93 | 1017.5 | |
| 20260508070517 | 48 | 0.0 | 0.0 | 0.00 | 0.06 | 0.00 | 93 | 1017.3 | |
| 20260508065517 | 48 | 0 | 0.9 | 2.6 | 0.00 | 0.06 | 0.00 | 93 | 1017.3 |
| 20260508064517 | 48 | 0.0 | 0.9 | 0.00 | 0.06 | 0.00 | 93 | 1017.2 | |
| 20260508063517 | 47 | 0.0 | 0.0 | 0.00 | 0.06 | 0.00 | 94 | 1017.1 | |
| 20260508062517 | 47 | 0.0 | 1.7 | 0.00 | 0.06 | 0.00 | 94 | 1016.9 | |
| 20260508061517 | 47 | 0.0 | 0.0 | 0.00 | 0.06 | 0.00 | 94 | 1016.8 | |
| 20260508060517 | 47 | 0.0 | 0.9 | 0.00 | 0.06 | 0.00 | 94 | 1016.8 | |
| 20260508055517 | 47 | 0.0 | 0.0 | 0.00 | 0.06 | 0.00 | 94 | 1016.7 | |
| 20260508054537 | 47 | 0.0 | 0.9 | 0.00 | 0.06 | 0.00 | 94 | 1016.5 | |
| 20260508053537 | 47 | 0.0 | 0.9 | 0.00 | 0.06 | 0.00 | 94 | 1016.3 | |
| 20260508052517 | 46 | 0.0 | 0.9 | 0.00 | 0.06 | 0.00 | 94 | 1016.2 | |
| 20260508051537 | 46 | 0.0 | 0.9 | 0.00 | 0.06 | 0.00 | 94 | 1016.2 | |
| 20260508050517 | 46 | 0.0 | 0.9 | 0.00 | 0.06 | 0.00 | 94 | 1016.2 | |
| 20260508045516 | 46 | 0.0 | 0.0 | 0.00 | 0.06 | 0.00 | 94 | 1016.1 | |
| 20260508044517 | 46 | 0.0 | 0.9 | 0.00 | 0.06 | 0.00 | 94 | 1016.1 | |
| 20260508043517 | 45 | 0.0 | 0.0 | 0.00 | 0.06 | 0.00 | 94 | 1016.1 | |
| 20260508042516 | 45 | 0.0 | 0.0 | 0.00 | 0.06 | 0.00 | 94 | 1016.0 | |
| 20260508041516 | 45 | 0.0 | 0.0 | 0.00 | 0.06 | 0.00 | 94 | 1016.0 | |
| 20260508040516 | 45 | 0.0 | 0.9 | 0.00 | 0.06 | 0.00 | 94 | 1015.9 | |
| 20260508035517 | 45 | 0.0 | 1.7 | 0.00 | 0.06 | 0.00 | 94 | 1015.9 | |
| 20260508034537 | 45 | 23 | 0.9 | 2.6 | 0.00 | 0.06 | 0.00 | 94 | 1015.9 |
| 20260508033517 | 45 | 23 | 0.9 | 2.6 | 0.00 | 0.06 | 0.00 | 94 | 1015.9 |
| 20260508032536 | 45 | 0 | 0.9 | 3.5 | 0.00 | 0.06 | 0.00 | 94 | 1015.8 |
| 20260508031516 | 46 | 0.0 | 1.7 | 0.00 | 0.06 | 0.00 | 94 | 1015.8 | |
| 20260508030517 | 46 | 0.0 | 0.9 | 0.00 | 0.06 | 0.00 | 94 | 1015.9 | |
| 20260508025517 | 46 | 0.0 | 0.9 | 0.00 | 0.06 | 0.00 | 94 | 1015.7 | |
| 20260508024537 | 46 | 0.0 | 0.9 | 0.00 | 0.06 | 0.00 | 94 | 1015.7 | |
| 20260508023516 | 46 | 0.0 | 0.0 | 0.00 | 0.06 | 0.00 | 94 | 1015.7 | |
| 20260508022516 | 46 | 0.0 | 0.0 | 0.00 | 0.06 | 0.00 | 94 | 1015.7 | |
| 20260508021517 | 46 | 0.0 | 0.0 | 0.00 | 0.06 | 0.00 | 94 | 1015.7 | |
| 20260508020516 | 46 | 0.0 | 0.0 | 0.00 | 0.06 | 0.00 | 94 | 1015.8 | |
| 20260508015536 | 46 | 0.0 | 0.0 | 0.00 | 0.06 | 0.00 | 94 | 1015.8 | |
| 20260508014517 | 46 | 0.0 | 0.0 | 0.00 | 0.06 | 0.00 | 94 | 1016.0 | |
| 20260508013600 | 46 | 0.0 | 0.9 | 0.00 | 0.06 | 0.00 | 94 | 1016.0 | |
| 20260508012516 | 46 | 0.0 | 0.9 | 0.00 | 0.06 | 0.00 | 94 | 1016.0 | |
| 20260508011516 | 46 | 0.0 | 0.0 | 0.00 | 0.06 | 0.00 | 93 | 1015.8 | |
| 20260508010516 | 46 | 0.0 | 0.9 | 0.00 | 0.06 | 0.00 | 93 | 1015.8 | |
| 20260508005516 | 46 | 0.0 | 0.9 | 0.00 | 0.06 | 0.00 | 93 | 1015.8 | |
| 20260508004516 | 46 | 0.0 | 0.9 | 0.00 | 0.06 | 0.00 | 94 | 1016.0 | |
| 20260508003556 | 47 | 0.0 | 0.0 | 0.00 | 0.06 | 0.00 | 94 | 1016.1 | |
| 20260508002516 | 47 | 0.0 | 0.0 | 0.00 | 0.06 | 0.00 | 93 | 1016.1 | |
| 20260508001516 | 47 | 0.0 | 0.0 | 0.00 | 0.06 | 0.00 | 93 | 1016.1 | |
| 20260508000516 | 47 | 0.0 | 0.0 | 0.00 | 0.06 | 0.00 | 93 | 1016.1 | |
| 20260507235516 | 47 | 0.0 | 0.0 | 0.00 | 0.06 | 0.00 | 93 | 1016.1 | |
| 20260507234516 | 47 | 0.0 | 0.0 | 0.00 | 0.06 | 0.00 | 93 | 1016.2 | |
| 20260507233516 | 47 | 0.0 | 0.0 | 0.00 | 0.06 | 0.00 | 93 | 1016.2 | |
| 20260507232536 | 47 | 0.0 | 0.0 | 0.00 | 0.06 | 0.00 | 93 | 1016.2 | |
| 20260507231516 | 47 | 0.0 | 0.9 | 0.00 | 0.06 | 0.00 | 93 | 1016.1 | |
| 20260507230516 | 47 | 0.0 | 0.0 | 0.00 | 0.06 | 0.00 | 93 | 1016.3 | |
| 20260507225516 | 47 | 0.0 | 0.0 | 0.00 | 0.06 | 0.00 | 93 | 1016.2 | |
| 20260507224516 | 47 | 0.0 | 0.0 | 0.00 | 0.06 | 0.00 | 93 | 1016.2 | |
| 20260507223518 | 47 | 0.0 | 0.0 | 0.00 | 0.06 | 0.00 | 93 | 1016.2 | |
| 20260507222516 | 47 | 0.0 | 0.0 | 0.00 | 0.06 | 0.00 | 93 | 1016.0 | |
| 20260507221516 | 46 | 0.0 | 0.0 | 0.00 | 0.06 | 0.00 | 93 | 1016.1 | |
| 20260507220536 | 46 | 0.0 | 0.0 | 0.01 | 0.07 | 0.00 | 93 | 1016.1 | |
| 20260507215517 | 46 | 0.0 | 0.9 | 0.01 | 0.07 | 0.07 | 92 | 1016.1 | |
| 20260507214517 | 46 | 0.0 | 0.9 | 0.01 | 0.07 | 0.07 | 92 | 1015.8 | |
| 20260507213517 | 47 | 0 | 0.9 | 3.5 | 0.01 | 0.07 | 0.07 | 92 | 1015.8 |
| 20260507212517 | 47 | 45 | 0.9 | 3.5 | 0.01 | 0.07 | 0.07 | 92 | 1015.8 |
| 20260507211517 | 47 | 0.0 | 0.9 | 0.01 | 0.07 | 0.07 | 92 | 1015.8 | |
| 20260507210517 | 47 | 0.0 | 0.9 | 0.00 | 0.06 | 0.06 | 92 | 1015.7 | |
| 20260507205537 | 48 | 0.0 | 0.9 | 0.01 | 0.06 | 0.06 | 92 | 1015.7 | |
| 20260507204516 | 48 | 0.0 | 1.7 | 0.02 | 0.06 | 0.06 | 92 | 1015.6 | |
| 20260507203516 | 48 | 0.0 | 2.6 | 0.02 | 0.07 | 0.06 | 92 | 1015.5 | |
| 20260507202516 | 48 | 0.0 | 1.7 | 0.02 | 0.08 | 0.06 | 92 | 1015.5 | |
| 20260507201536 | 49 | 0.0 | 0.9 | 0.02 | 0.09 | 0.06 | 92 | 1015.3 | |
| 20260507200517 | 49 | 0.0 | 0.0 | 0.02 | 0.12 | 0.06 | 91 | 1015.3 | |
| 20260507195516 | 49 | 0.0 | 0.0 | 0.02 | 0.14 | 0.06 | 91 | 1015.2 | |
| 20260507194517 | 49 | 0.0 | 0.0 | 0.01 | 0.16 | 0.05 | 91 | 1015.1 | |
| 20260507193556 | 49 | 0.0 | 0.0 | 0.01 | 0.17 | 0.05 | 91 | 1015.0 | |
| 20260507192516 | 49 | 0.0 | 0.0 | 0.01 | 0.18 | 0.05 | 90 | 1014.9 | |
| 20260507191517 | 49 | 0.0 | 0.0 | 0.01 | 0.20 | 0.05 | 90 | 1014.9 | |
| 20260507190517 | 49 | 0.0 | 1.7 | 0.01 | 0.20 | 0.05 | 90 | 1014.7 | |
| 20260507185516 | 49 | 293 | 1.7 | 4.3 | 0.00 | 0.20 | 0.04 | 89 | 1014.7 |
| 20260507184516 | 49 | 293 | 0.9 | 2.6 | 0.00 | 0.20 | 0.04 | 89 | 1014.5 |
| 20260507183537 | 49 | 293 | 0.9 | 1.7 | 0.00 | 0.20 | 0.04 | 89 | 1014.5 |
| 20260507182516 | 50 | 0.0 | 0.0 | 0.00 | 0.20 | 0.04 | 89 | 1014.4 | |
| 20260507181516 | 50 | 0.0 | 1.7 | 0.00 | 0.20 | 0.04 | 89 | 1014.3 | |
| 20260507180516 | 50 | 293 | 0.9 | 2.6 | 0.00 | 0.20 | 0.04 | 88 | 1014.2 |
| 20260507175537 | 50 | 293 | 0.9 | 2.6 | 0.00 | 0.20 | 0.04 | 88 | 1014.3 |
| 20260507174516 | 50 | 293 | 0.9 | 2.6 | 0.00 | 0.20 | 0.04 | 88 | 1014.1 |
| 20260507173516 | 49 | 315 | 1.7 | 4.3 | 0.00 | 0.20 | 0.04 | 88 | 1014.1 |
| 20260507172516 | 50 | 293 | 2.6 | 5.2 | 0.00 | 0.20 | 0.04 | 87 | 1014.0 |
| 20260507171516 | 50 | 293 | 3.5 | 7.8 | 0.00 | 0.22 | 0.04 | 88 | 1014.0 |
| 20260507170516 | 50 | 293 | 2.6 | 6.1 | 0.00 | 0.24 | 0.04 | 88 | 1013.9 |
| 20260507165559 | 50 | 293 | 2.6 | 4.3 | 0.00 | 0.27 | 0.04 | 87 | 1013.9 |
| 20260507164516 | 51 | 315 | 2.6 | 5.2 | 0.00 | 0.29 | 0.04 | 87 | 1013.9 |
| 20260507163516 | 51 | 293 | 2.6 | 7.8 | 0.00 | 0.29 | 0.04 | 86 | 1013.8 |
| 20260507162516 | 51 | 270 | 4.3 | 7.8 | 0.00 | 0.29 | 0.04 | 86 | 1013.6 |
| 20260507161516 | 52 | 270 | 3.5 | 7.8 | 0.00 | 0.29 | 0.04 | 87 | 1013.6 |
| 20260507160556 | 52 | 270 | 3.5 | 6.1 | 0.00 | 0.29 | 0.04 | 87 | 1013.6 |
| 20260507155517 | 52 | 270 | 3.5 | 7.0 | 0.00 | 0.29 | 0.04 | 88 | 1013.5 |
| 20260507154516 | 52 | 270 | 2.6 | 5.2 | 0.00 | 0.29 | 0.04 | 89 | 1013.4 |
| 20260507153539 | 52 | 270 | 2.6 | 5.2 | 0.00 | 0.29 | 0.04 | 90 | 1013.4 |
| 20260507152516 | 52 | 270 | 0.9 | 3.5 | 0.00 | 0.29 | 0.04 | 90 | 1013.4 |
| 20260507151516 | 51 | 270 | 3.5 | 7.8 | 0.01 | 0.29 | 0.04 | 91 | 1013.4 |
| 20260507150516 | 51 | 270 | 3.5 | 9.6 | 0.01 | 0.29 | 0.04 | 91 | 1013.3 |
| 20260507145516 | 50 | 270 | 4.3 | 7.8 | 0.02 | 0.29 | 0.04 | 90 | 1013.3 |
| 20260507144516 | 50 | 270 | 4.3 | 10.4 | 0.02 | 0.29 | 0.04 | 91 | 1013.3 |
| 20260507143516 | 51 | 293 | 2.6 | 6.1 | 0.02 | 0.29 | 0.04 | 91 | 1013.2 |
| 20260507142516 | 51 | 315 | 1.7 | 4.3 | 0.02 | 0.29 | 0.04 | 90 | 1013.2 |
| 20260507141516 | 50 | 315 | 2.6 | 7.0 | 0.01 | 0.28 | 0.03 | 89 | 1013.1 |
| 20260507140516 | 51 | 293 | 3.5 | 7.8 | 0.01 | 0.28 | 0.03 | 89 | 1013.2 |
| 20260507135516 | 51 | 293 | 2.6 | 6.1 | 0.00 | 0.28 | 0.02 | 88 | 1013.1 |
| 20260507134516 | 52 | 248 | 3.5 | 7.0 | 0.00 | 0.28 | 0.02 | 87 | 1013.1 |
| 20260507133515 | 52 | 270 | 3.5 | 7.0 | 0.00 | 0.28 | 0.02 | 86 | 1013.0 |